RH
32 32 26 19 13 9 9 8 6 5 4 4 4 4 4 5 9 14 17 18 19 22 32 42 55 64 73 79 78 80 79 85 78 58 72 90 85 75 78 69 23 15 16
34 31 25 16 12 11 9 6 5 5 5 5 5 5 4 4 4 4 4 6 10 15 18 18 19 25 31 41 65 73 78 80 80 85 69 62 74 79 82 84 82 43 17
35 31 22 14 13 12 8 6 6 6 6 6 6 6 5 4 4 4 4 4 3 3 4 5 9 14 17 18 21 40 65 75 81 81 88 79 73 76 84 87 88 84 74
40 34 23 17 15 11 8 7 7 7 7 7 6 5 5 4 4 4 4 4 4 4 3 3 3 3 4 8 13 17 19 29 52 77 86 87 84 74 74 83 85 88 86
44 35 24 21 16 12 10 9 8 8 8 7 6 5 5 6 6 6 6 6 6 5 5 5 4 4 3 3 3 5 10 16 22 31 51 75 86 89 83 75 78 90 88
45 35 27 23 18 14 12 11 9 8 7 6 6 6 6 7 8 9 9 9 8 8 7 6 6 5 5 4 3 3 3 3 9 17 26 34 47 82 92 89 79 82 90
45 36 29 26 21 16 14 12 10 8 7 7 7 8 9 10 11 12 12 11 10 10 9 9 8 7 7 6 5 5 4 3 3 3 9 20 38 95 96 92 92 85 83
47 39 33 28 23 18 15 13 10 8 7 8 9 10 12 12 13 14 13 13 12 11 10 10 10 10 9 8 8 7 6 5 4 3 3 3 8 25 60 70 76 90 82
50 44 37 31 25 19 16 13 10 9 8 9 11 13 15 16 15 14 13 11 10 9 8 8 9 10 10 9 9 8 7 6 6 5 5 4 3 3 7 15 42 97 78
53 48 42 35 26 20 16 12 10 9 10 13 17 21 24 24 20 18 15 10 8 7 6 5 5 5 6 6 6 6 6 6 6 5 4 4 4 4 3 4 7 29 58
57 52 44 32 23 17 13 11 11 12 15 19 22 26 30 32 28 22 13 10 7 5 4 4 4 4 3 3 3 3 3 4 4 4 4 3 3 3 3 3 3 3 5
59 50 37 25 18 14 14 17 20 23 26 30 35 39 38 35 31 27 18 8 6 4 3 3 3 3 3 2 2 2 2 2 2 2 2 3 3 2 2 2 2 2 2
58 42 29 20 17 22 33 47 59 57 48 43 40 36 32 27 22 20 16 12 6 3 2 2 2 2 2 2 2 2 2 2 2 2 2 2 2 2 2 2 2 2 2
95 81 32 23 31 38 61 83 71 56 46 41 36 30 25 22 18 12 7 5 4 4 2 2 3 2 2 2 2 2 2 2 2 2 1 1 1 1 1 1 1 1 1
77 66 67 59 70 93 94 93 90 60 36 26 20 15 12 8 6 5 4 2 2 3 2 3 3 3 3 2 2 2 2 2 2 2 1 1 1 1 1 1 1 1 1
63 71 77 86 94 91 86 75 70 54 33 19 9 6 6 4 4 4 4 4 3 3 2 3 4 4 4 4 3 3 3 2 2 2 2 2 2 1 1 1 1 1 1
44 51 66 84 77 66 54 50 46 34 19 12 8 7 7 7 8 8 7 7 6 6 4 4 5 5 6 7 7 6 5 4 4 3 3 2 2 2 2 2 2 1 1
56 71 84 75 58 41 25 17 14 13 14 14 13 12 12 11 12 11 11 10 10 10 9 8 10 9 9 10 10 8 8 7 6 6 5 5 4 4 3 3 2 2 2
94 90 81 64 44 38 36 29 19 15 15 15 15 15 16 14 14 15 14 13 14 17 18 17 17 16 16 16 13 12 11 11 10 9 8 7 7 6 5 4 4 3 3
94 87 73 55 40 24 19 18 19 21 22 23 22 22 22 21 21 20 18 17 22 28 30 28 28 27 24 23 19 17 17 17 14 14 13 12 10 9 8 8 6 6 5
92 78 50 30 24 22 24 26 28 28 29 31 31 30 30 29 27 26 25 30 37 39 40 39 38 44 42 34 28 26 22 19 20 18 15 15 12 11 11 10 9 8 7
73 51 31 28 27 28 31 32 32 32 37 40 40 41 40 40 38 36 40 46 50 51 51 50 54 58 53 46 42 34 30 25 18 25 22 15 15 13 13 14 15 14 12
43 34 34 33 34 36 37 37 39 44 42 45 48 51 54 55 57 56 58 60 60 60 63 68 67 58 59 62 54 42 38 32 27 28 24 16 22 18 19 18 18 17 16
38 39 38 39 41 42 40 44 49 52 52 58 60 60 59 60 63 66 66 67 66 66 66 73 70 67 71 70 66 59 51 37 31 34 35 19 30 22 25 23 21 21 21
41 41 41 44 46 46 49 53 56 56 59 63 66 66 66 64 65 67 67 67 65 64 68 70 68 70 69 66 64 64 59 52 36 42 49 34 34 35 32 25 26 27 29
44 45 50 53 54 56 65 66 67 68 66 68 68 69 70 69 67 70 73 72 65 60 61 59 58 59 54 52 54 56 55 51 46 42 53 59 51 59 40 30 29 30 38
Wind_Speed
29 29 28 28 28 27 26 25 24 25 25 25 25 26 27 27 29 30 31 32 32 32 31 32 32 30 28 29 27 25 24 22 21 20 19 19 18 18 18 17 17 18 19
30 29 28 27 26 25 26 26 27 27 26 26 27 27 27 28 29 29 30 31 33 33 35 34 34 33 34 34 31 29 28 26 24 25 23 22 22 21 20 19 19 18 20
31 30 30 29 28 27 26 26 27 28 28 29 29 30 30 29 29 29 30 30 31 32 32 34 34 37 37 36 34 34 34 32 29 26 25 25 25 24 25 23 22 21 20
32 30 30 29 29 28 27 26 27 28 28 28 28 29 31 31 31 31 31 31 31 32 33 33 34 36 37 38 39 37 38 36 34 33 31 29 29 27 28 28 25 26 24
33 31 30 29 28 27 27 25 25 27 28 29 29 29 30 31 32 33 33 33 34 35 35 35 35 35 36 37 37 38 40 39 38 38 38 36 33 32 32 30 30 28 28
34 32 31 30 29 27 26 26 25 26 27 28 28 29 30 31 31 32 33 34 36 37 37 37 37 38 37 38 38 38 39 39 40 41 41 40 38 36 34 34 32 33 32
33 33 32 30 30 29 28 27 26 26 27 27 28 28 29 30 32 33 34 35 36 37 39 39 40 40 39 40 40 40 40 40 40 42 44 44 43 36 36 38 36 36 37
32 32 32 32 32 32 31 29 28 27 27 27 27 27 28 29 31 32 33 35 37 39 40 41 41 42 42 42 42 42 42 43 43 43 45 45 46 47 45 45 43 41 38
31 32 32 32 33 33 32 31 29 28 27 28 27 28 28 30 30 32 34 35 37 39 41 42 43 43 45 45 45 46 45 45 45 46 47 47 46 48 49 50 47 45 44
30 31 31 31 31 31 30 30 29 28 27 27 27 28 29 30 32 34 36 36 37 38 39 41 43 44 45 47 48 49 49 49 48 48 48 49 49 49 49 50 51 53 51
28 28 28 28 28 28 28 28 28 28 28 28 28 30 31 33 35 36 37 38 40 41 41 41 42 43 44 45 47 49 50 52 52 52 52 51 51 52 51 51 52 53 54
27 27 26 26 26 26 26 26 26 27 28 30 31 32 34 37 39 41 41 40 41 42 43 44 44 44 45 46 47 48 49 50 52 53 54 56 56 55 54 53 53 54 55
25 25 25 25 25 25 25 27 28 30 32 33 34 35 36 38 41 43 44 44 43 39 40 42 44 44 45 46 46 47 47 49 50 51 53 56 57 58 58 58 56 56 57
27 26 26 26 26 28 31 31 31 33 34 36 37 38 39 41 42 44 44 45 44 44 40 38 41 43 43 44 45 46 47 48 50 51 51 53 54 56 59 60 61 60 59
26 25 27 31 32 33 33 33 33 35 37 38 39 39 39 40 41 41 42 44 45 44 42 36 38 40 43 44 46 46 47 46 48 49 50 52 54 55 55 57 60 61 62
26 25 28 28 29 29 30 32 34 36 37 37 37 37 37 37 37 38 38 40 41 42 44 35 35 36 39 41 43 45 45 45 46 47 48 49 50 52 52 54 57 58 60
27 27 28 30 30 31 32 33 34 34 35 35 34 34 33 34 33 34 35 36 37 39 41 34 33 35 37 38 39 41 41 42 41 43 45 47 46 47 50 51 51 51 54
28 30 30 28 29 31 32 31 31 31 31 30 31 31 30 33 32 32 34 35 35 36 38 37 31 33 36 37 38 39 39 39 40 39 41 42 43 44 45 46 48 50 51
31 29 29 29 30 31 32 31 30 29 28 28 28 29 29 32 31 32 33 34 33 33 35 38 36 33 32 34 39 38 37 38 40 40 40 41 42 43 45 46 48 49 51
32 31 30 29 30 29 28 27 27 27 27 27 28 29 29 30 31 32 33 32 32 32 34 37 39 34 32 32 37 37 38 39 39 38 38 38 40 42 44 45 48 50 52
30 29 29 29 28 26 25 26 26 26 27 27 28 29 29 30 31 31 32 31 32 33 34 36 37 37 34 32 33 34 39 38 36 36 38 37 40 42 42 44 47 50 53
29 29 28 27 26 25 24 25 26 27 27 27 28 29 30 30 30 30 31 31 32 34 35 35 35 37 37 32 32 33 35 35 37 35 38 38 40 41 41 42 44 48 52
29 27 26 25 24 23 24 24 25 28 27 27 27 27 28 28 29 30 30 31 32 33 34 35 37 36 36 35 34 33 33 35 36 36 39 40 39 41 40 41 42 46 50
26 25 25 25 23 23 24 24 25 27 27 26 27 26 27 26 27 29 30 32 33 34 35 36 38 37 37 38 37 36 37 39 38 41 40 41 42 39 41 42 42 43 46
25 25 24 24 23 23 24 24 25 26 26 26 26 25 25 25 25 27 29 31 32 33 35 36 37 37 37 38 38 38 40 40 41 42 43 43 41 41 41 42 42 42 43
24 25 24 23 23 22 24 24 24 25 25 25 24 24 24 25 25 25 27 29 31 31 33 36 37 38 38 38 37 37 38 42 43 45 42 42 42 43 46 40 40 40 43
Wind_Direction
251 251 251 252 252 255 256 254 251 249 249 249 249 247 246 247 246 245 245 244 247 246 246 246 246 244 242 241 238 235 238 235 236 235 234 236 232 221 217 223 225 223 226
261 264 264 261 255 247 245 248 249 249 250 251 251 250 248 246 246 246 246 245 244 245 244 245 248 248 247 245 243 243 242 243 242 239 238 233 236 237 226 224 224 228 226
259 261 261 259 256 254 252 251 250 249 247 246 246 248 250 250 248 247 247 247 248 246 247 245 245 246 246 247 247 245 246 243 244 245 244 242 239 237 236 233 235 232 233
261 262 259 257 256 255 253 252 253 253 252 249 247 246 246 247 249 250 249 249 250 250 249 247 246 247 247 246 245 244 244 244 243 244 243 242 242 240 236 239 237 233 233
264 263 263 260 260 259 259 258 255 254 253 252 249 247 246 246 246 247 250 250 250 251 251 250 249 248 248 248 248 246 246 244 243 242 243 241 241 242 242 239 240 234 234
264 265 264 265 266 266 266 264 260 256 253 250 249 249 251 253 254 253 253 252 253 253 253 252 250 249 249 249 249 248 247 246 244 243 242 243 244 244 243 243 240 241 239
260 262 263 264 265 266 265 263 259 255 253 252 250 250 251 252 252 254 255 255 254 253 253 255 255 253 251 249 248 249 249 248 246 245 243 242 242 235 241 241 242 243 242
263 265 267 268 268 268 268 265 259 254 252 254 256 257 258 258 258 258 257 256 256 255 253 252 253 254 255 254 252 250 248 249 248 247 245 243 243 242 238 242 243 243 241
267 268 269 269 270 270 269 267 263 258 256 255 258 261 265 266 266 264 261 258 256 253 253 252 251 250 251 252 253 253 252 249 247 247 249 248 245 245 246 245 241 240 242
266 268 269 271 271 270 269 268 267 265 263 263 264 266 268 268 268 269 267 265 261 257 253 251 250 248 248 248 248 249 251 252 251 249 248 248 248 246 245 246 247 244 240
266 267 267 267 267 266 264 264 265 266 268 269 271 273 273 272 270 266 263 263 263 262 259 256 254 252 249 247 246 245 245 247 248 250 250 250 249 248 246 245 244 247 248
266 266 266 264 262 261 263 264 266 268 270 271 271 271 272 271 270 267 264 260 259 259 259 259 258 256 253 251 249 248 246 245 244 245 246 247 249 250 249 247 246 246 246
265 265 263 262 263 264 265 271 274 275 274 274 274 273 271 270 269 267 265 261 257 254 255 257 258 258 258 257 255 253 251 249 247 245 244 244 244 245 247 249 248 246 244
254 255 259 260 262 266 273 279 279 279 277 275 273 270 268 266 264 263 263 262 259 256 251 254 257 258 258 257 257 257 255 254 253 250 247 246 246 244 244 244 247 248 247
249 252 254 253 259 266 272 274 275 274 274 273 271 269 266 264 262 262 262 262 261 259 255 253 254 255 255 256 256 255 255 255 255 254 254 253 251 249 246 245 244 245 247
261 263 271 277 279 281 280 279 277 275 272 270 268 267 266 265 264 263 263 263 263 263 260 256 255 257 257 256 255 256 255 255 255 255 255 254 254 254 255 254 250 247 245
258 266 274 281 283 283 280 276 273 269 267 265 264 263 266 266 266 266 266 266 266 266 266 261 258 255 256 256 256 256 256 256 256 258 260 262 262 262 260 260 258 258 257
262 272 276 281 282 280 276 273 269 267 266 267 268 269 268 269 270 269 268 268 268 269 270 269 258 255 255 255 254 253 254 256 256 257 260 262 265 267 268 268 268 267 265
268 273 282 283 281 278 276 274 273 272 272 271 271 272 271 270 270 269 268 267 268 268 270 271 268 260 254 253 254 255 255 256 259 260 262 265 266 267 267 269 271 272 272
273 278 278 279 278 276 274 274 275 277 277 277 276 276 275 274 270 268 267 267 266 265 265 268 272 270 264 254 255 254 253 259 259 263 265 268 269 270 272 274 273 273 274
275 276 280 280 278 278 279 279 280 280 281 281 282 281 280 276 274 269 265 263 262 262 263 266 271 274 270 265 260 258 257 254 258 263 264 265 266 268 272 274 276 276 275
273 278 278 277 278 279 279 280 281 279 279 281 282 282 281 278 275 270 265 263 260 260 263 266 268 270 273 273 268 264 264 262 256 261 264 263 267 268 271 273 275 277 278
278 278 278 279 279 280 279 280 281 280 282 282 282 281 278 276 273 270 266 262 260 261 265 267 269 271 276 279 278 274 273 269 267 267 266 263 266 269 273 275 277 277 278
278 279 279 280 281 281 281 281 280 280 281 281 280 279 278 275 271 268 265 263 262 261 262 264 267 270 271 273 275 278 276 274 274 275 276 267 274 270 273 273 274 278 280
279 279 280 281 281 281 281 280 279 279 279 277 277 277 277 276 273 271 270 267 264 262 261 263 266 269 268 269 273 275 274 276 273 276 280 278 280 280 275 273 274 277 280
280 281 280 279 280 279 280 281 280 278 277 276 276 277 276 277 276 274 275 275 271 270 270 269 267 267 268 270 271 271 273 272 274 275 278 280 285 286 283 277 274 275 278